Change the Weather History Date:

Friday, April 19, 2013

  Actual Average Record
Temperature  
Mean Temperature 19 °F 22 °F  
Max Temperature 31 °F 29 °F 48 °F (1953)
Min Temperature 7 °F 16 °F -18 °F (1918)
Degree Days  
Heating Degree Days 46 43  
Month to date heating degree days 1009 906  
Since 1 July heating degree days 12298 11884  
Cooling Degree Days 0    
Month to date cooling degree days 0  
Year to date cooling degree days 0  
Moisture  
Dew Point 8 °F    
Average Humidity 0    
Maximum Humidity 0    
Minimum Humidity 0    
Precipitation  
Precipitation 0.00 in 0.03 in 0.53 in (1949)
Month to date precipitation 0.25 0.46  
Year to date precipitation 2.41 2.98  
Snow  
Snow 0.00 in 0.20 in 4.60 in (1949)
Month to date snowfall 3.9 5.2  
Since 1 July snowfall 54.3 70.8  
Snow Depth 17.00 in    
Sea Level Pressure  
Sea Level Pressure 30.53 in    
Wind  
Wind Speed 1 mph (WNW)    
Max Wind Speed 7 mph    
Max Gust Speed 7 mph    
Visibility 10 miles    
Events      
T = Trace of Precipitation, MM = Missing Value Source: NWS Daily Summary

Daily Weather History Graph

Daily Weather History Graph

Search for Another Location

Airport or City:

Trip Planner

Search our weather history database for the weather conditions in past years. The results will help you decide how hot, cold, wet, or windy it might be!

Date:

Astronomy

Apr. 19, 2013 Rise Set
Actual Time 7:12 AM AKDT 10:51 PM AKDT
Civil Twilight 6:12 AM AKDT 11:51 PM AKDT
Nautical Twilight 4:36 AM AKDT 1:31 AM AKDT
Astronomical Twilight Sun does not rise Sun does not rise
Moon 2:41 PM AKDT (4/19) 5:47 AM AKDT (4/19)
Length of Visible Light 17h 38m
Length of Day
15h 39m
Waxing Gibbous, 63% of the Moon is Illuminated
Apr 19
Waxing Gibbous
Apr 25
Full
May 2
Last Quarter
May 9
New
May 17
First Quarter

Hourly Weather History & Observations

Time (AKDT) Temp. Windchill Dew Point Humidity Pressure Visibility Wind Dir Wind Speed Gust Speed Precip Events Conditions
12:53 AM 17.1 °F - 7.0 °F 65% 30.51 in 10.0 mi Calm Calm - N/A   Partly Cloudy
1:53 AM 14.0 °F - 5.0 °F 67% 30.51 in 10.0 mi Calm Calm - N/A   Partly Cloudy
2:53 AM 12.0 °F - 3.9 °F 70% 30.52 in 10.0 mi Calm Calm - N/A   Partly Cloudy
3:53 AM 12.9 °F - 6.1 °F 74% 30.53 in 10.0 mi Calm Calm - N/A   Partly Cloudy
4:53 AM 12.9 °F - 6.1 °F 74% 30.53 in 10.0 mi Calm Calm - N/A   Partly Cloudy
5:53 AM 10.0 °F - 3.0 °F 73% 30.53 in 10.0 mi Calm Calm - N/A   Partly Cloudy
6:53 AM 10.9 °F - 3.0 °F 70% 30.53 in 10.0 mi Calm Calm - N/A   Partly Cloudy
7:53 AM 10.0 °F - 3.9 °F 76% 30.55 in 10.0 mi Calm Calm - N/A   Partly Cloudy
8:53 AM 15.1 °F - 7.0 °F 70% 30.54 in 10.0 mi Calm Calm - N/A   Partly Cloudy
9:53 AM 19.0 °F - 8.1 °F 62% 30.56 in 10.0 mi Calm Calm - N/A   Partly Cloudy
10:53 AM 21.9 °F - 8.1 °F 55% 30.56 in 10.0 mi Calm Calm - N/A   Mostly Cloudy
11:53 AM 26.1 °F - 7.0 °F 44% 30.56 in 10.0 mi Calm Calm - N/A   Mostly Cloudy
12:53 PM 28.0 °F - 10.9 °F 49% 30.58 in 10.0 mi Calm Calm - N/A   Scattered Clouds
1:53 PM 30.0 °F 26.5 °F 9.0 °F 41% 30.57 in 10.0 mi WNW 3.5 mph - N/A   Clear
2:53 PM 30.0 °F 25.2 °F 6.1 °F 36% 30.56 in 10.0 mi West 4.6 mph - N/A   Scattered Clouds
3:53 PM 30.0 °F 24.1 °F 9.0 °F 41% 30.55 in 10.0 mi West 5.8 mph - N/A   Scattered Clouds
4:53 PM 28.9 °F 23.9 °F 10.9 °F 47% 30.54 in 10.0 mi West 4.6 mph - N/A   Mostly Cloudy
5:53 PM 28.9 °F - 10.0 °F 45% 30.52 in 10.0 mi Calm Calm - N/A   Mostly Cloudy
6:53 PM 28.9 °F 23.9 °F 12.0 °F 49% 30.51 in 10.0 mi West 4.6 mph - N/A   Mostly Cloudy
7:53 PM 28.0 °F 24.2 °F 9.0 °F 45% 30.49 in 10.0 mi WNW 3.5 mph - N/A   Mostly Cloudy
8:53 PM 26.1 °F 20.5 °F 14.0 °F 60% 30.48 in 10.0 mi WNW 4.6 mph - N/A   Mostly Cloudy
9:53 PM 23.0 °F - 14.0 °F 68% 30.47 in 10.0 mi Calm Calm - N/A   Overcast
10:53 PM 19.9 °F - 12.9 °F 74% 30.47 in 10.0 mi Calm Calm - N/A   Overcast
11:53 PM 18.0 °F - 10.9 °F 74% 30.45 in 10.0 mi Calm Calm - N/A   Overcast